Weather History for KRZL - December, 2013

Change the Weather History Date:

Monday, December 30, 2013

  Actual Average (KVPZ) Record (KVPZ)
Temperature  
Mean Temperature 14 °F 25 °F  
Max Temperature 19 °F 32 °F 56 °F (2002)
Min Temperature 10 °F 18 °F -1 °F (1998)
Degree Days  
Heating Degree Days 50 40  
Month to date heating degree days 1103  
Since 1 July heating degree days 2361  
Cooling Degree Days 0 0  
Month to date cooling degree days 0  
Year to date cooling degree days 713  
Moisture  
Dew Point 11 °F    
Average Humidity 81    
Maximum Humidity 93    
Minimum Humidity 68    
Precipitation  
Precipitation 0.00 in 0.08 in 0.25 in (2011)
Month to date precipitation 2.11  
Year to date precipitation 37.44  
Sea Level Pressure  
Sea Level Pressure 30.23 in    
Wind  
Wind Speed 10 mph (West)    
Max Wind Speed 16 mph    
Max Gust Speed 22 mph    
Visibility 8 miles    
Events Snow    
T = Trace of Precipitation, MM = Missing Value Source: NWS Daily Summary

Daily Weather History Graph

Daily Weather History Graph

Search for Another Location

Airport or City:

Trip Planner

Search our weather history database for the weather conditions in past years. The results will help you decide how hot, cold, wet, or windy it might be!

Date:

Astronomy

Dec. 30, 2013 Rise Set
Actual Time 7:13 AM CST 4:29 PM CST
Civil Twilight 6:42 AM CST 5:00 PM CST
Nautical Twilight 6:07 AM CST 5:35 PM CST
Astronomical Twilight 5:34 AM CST 6:08 PM CST
Moon 5:02 AM CST (12/30) 3:02 PM CST (12/30)
Length of Visible Light 10h 18m
Length of Day
9h 16m
Waning Crescent, 4% of the Moon is Illuminated
Dec 30
Waning Crescent
Jan 1
New
Jan 7
First Quarter
Jan 15
Full
Jan 23
Last Quarter

Hourly Weather History & Observations

Time (CST) Temp. Windchill Dew Point Humidity Pressure Visibility Wind Dir Wind Speed Gust Speed Precip Events Conditions
12:15 AM 19.4 °F 5.0 °F 17.6 °F 93% 30.14 in 10.0 mi West 16.1 mph 21.9 mph N/A Snow Light Snow
12:35 AM 19.4 °F 6.0 °F 17.6 °F 93% 30.15 in 10.0 mi West 13.8 mph 19.6 mph N/A Snow Light Snow
12:55 AM 19.4 °F 5.5 °F 17.6 °F 93% 30.16 in 7.0 mi West 15.0 mph 20.7 mph N/A Snow Light Snow
1:15 AM 19.4 °F 7.2 °F 17.6 °F 93% 30.17 in 10.0 mi West 11.5 mph - N/A Snow Light Snow
1:35 AM 19.4 °F 7.9 °F 15.8 °F 86% 30.18 in 10.0 mi NW 10.4 mph 18.4 mph N/A   Overcast
1:55 AM 19.4 °F 8.6 °F 14.0 °F 80% 30.19 in 10.0 mi NNW 9.2 mph - N/A   Overcast
2:15 AM 19.4 °F 8.6 °F 14.0 °F 80% 30.19 in 10.0 mi NNW 9.2 mph - N/A   Overcast
2:35 AM 17.6 °F 5.0 °F 12.2 °F 79% 30.19 in 10.0 mi NW 11.5 mph - N/A   Overcast
2:55 AM 17.6 °F 5.7 °F 10.4 °F 73% 30.20 in 10.0 mi NW 10.4 mph - N/A   Overcast
3:15 AM 15.8 °F 4.2 °F 10.4 °F 79% 30.21 in 10.0 mi NW 9.2 mph - N/A   Scattered Clouds
3:35 AM 14.0 °F 2.9 °F 8.6 °F 79% 30.20 in 10.0 mi NNW 8.1 mph - N/A   Clear
3:55 AM 14.0 °F 2.9 °F 8.6 °F 79% 30.21 in 10.0 mi NW 8.1 mph - N/A   Clear
4:15 AM 14.0 °F 3.9 °F 8.6 °F 79% 30.22 in 10.0 mi NW 6.9 mph - N/A   Scattered Clouds
4:35 AM 14.0 °F 2.0 °F 8.6 °F 79% 30.23 in 10.0 mi NW 9.2 mph - N/A   Mostly Cloudy
4:55 AM 14.0 °F 2.9 °F 8.6 °F 79% 30.24 in 10.0 mi NW 8.1 mph - N/A   Overcast
5:15 AM 14.0 °F 2.9 °F 8.6 °F 79% 30.25 in 10.0 mi NW 8.1 mph - N/A   Overcast
5:35 AM 14.0 °F 2.9 °F 8.6 °F 79% 30.25 in 10.0 mi NW 8.1 mph - N/A   Mostly Cloudy
5:55 AM 12.2 °F 2.9 °F 8.6 °F 85% 30.25 in 10.0 mi WNW 5.8 mph - N/A   Scattered Clouds
6:15 AM 12.2 °F 2.9 °F 6.8 °F 79% 30.26 in 10.0 mi WNW 5.8 mph - N/A   Clear
6:35 AM 12.2 °F 4.3 °F 6.8 °F 79% 30.26 in 10.0 mi WNW 4.6 mph - N/A   Clear
6:55 AM 12.2 °F 2.9 °F 8.6 °F 85% 30.27 in 10.0 mi West 5.8 mph - N/A   Clear
7:15 AM 10.4 °F 0.8 °F 6.8 °F 85% 30.27 in 10.0 mi West 5.8 mph - N/A   Clear
7:35 AM 10.4 °F -0.4 °F 6.8 °F 85% 30.28 in 10.0 mi West 6.9 mph - N/A   Clear
7:55 AM 10.4 °F 0.8 °F 6.8 °F 85% 30.28 in 10.0 mi WNW 5.8 mph - N/A   Clear
8:15 AM 12.2 °F 1.7 °F 6.8 °F 79% 30.29 in 10.0 mi WNW 6.9 mph - N/A   Clear
8:35 AM 12.2 °F 0.7 °F 8.6 °F 85% 30.30 in 10.0 mi West 8.1 mph - N/A   Clear
8:55 AM 12.2 °F 0.7 °F 8.6 °F 85% 30.30 in 10.0 mi WNW 8.1 mph - N/A   Clear
9:15 AM 12.2 °F -0.2 °F 8.6 °F 85% 30.31 in 10.0 mi West 9.2 mph - N/A   Clear
9:35 AM 12.2 °F 1.7 °F 8.6 °F 85% 30.31 in 10.0 mi West 6.9 mph - N/A   Clear
9:55 AM 14.0 °F 2.0 °F 8.6 °F 79% 30.31 in 10.0 mi West 9.2 mph - N/A   Clear
10:15 AM 14.0 °F 6.5 °F 10.4 °F 86% 30.31 in 10.0 mi WSW 4.6 mph - N/A   Scattered Clouds
10:35 AM 14.0 °F 2.9 °F 8.6 °F 79% 30.30 in 10.0 mi West 8.1 mph - N/A   Scattered Clouds
10:55 AM 14.0 °F 2.0 °F 10.4 °F 86% 30.30 in 10.0 mi West 9.2 mph - N/A Snow Light Snow
11:15 AM 14.0 °F 2.0 °F 10.4 °F 86% 30.30 in 5.0 mi WSW 9.2 mph - N/A Snow Light Snow
11:35 AM 14.0 °F 2.9 °F 10.4 °F 86% 30.28 in 4.0 mi West 8.1 mph - N/A Snow Light Snow
11:55 AM 14.0 °F 5.1 °F 10.4 °F 86% 30.26 in 5.0 mi SW 5.8 mph - N/A Snow Light Snow
12:15 PM 14.0 °F 3.9 °F 10.4 °F 86% 30.24 in 10.0 mi SW 6.9 mph - N/A   Mostly Cloudy
12:35 PM 15.8 °F 6.1 °F 10.4 °F 79% 30.23 in 10.0 mi SW 6.9 mph - N/A   Scattered Clouds
12:55 PM 14.0 °F 3.9 °F 8.6 °F 79% 30.23 in 10.0 mi West 6.9 mph - N/A   Scattered Clouds
1:15 PM 14.0 °F 5.1 °F 8.6 °F 79% 30.21 in 10.0 mi SSW 5.8 mph - N/A   Clear
1:35 PM 15.8 °F 6.1 °F 8.6 °F 73% 30.21 in 10.0 mi SW 6.9 mph - N/A   Clear
1:55 PM 17.6 °F 9.3 °F 10.4 °F 73% 30.21 in 10.0 mi WSW 5.8 mph - N/A   Clear
2:15 PM 17.6 °F 6.4 °F 8.6 °F 68% 30.21 in 10.0 mi WSW 9.2 mph - N/A   Clear
2:55 PM 17.6 °F 7.3 °F 8.6 °F 68% 30.22 in 10.0 mi SW 8.1 mph - N/A   Clear
3:15 PM 17.6 °F 5.0 °F 10.4 °F 73% 30.23 in 10.0 mi WSW 11.5 mph - N/A   Clear
3:35 PM 17.6 °F 7.3 °F 10.4 °F 73% 30.23 in 10.0 mi WSW 8.1 mph - N/A   Scattered Clouds
3:55 PM 17.6 °F 6.4 °F 10.4 °F 73% 30.23 in 10.0 mi WSW 9.2 mph - N/A   Scattered Clouds
4:15 PM 17.6 °F 6.4 °F 10.4 °F 73% 30.23 in 10.0 mi WSW 9.2 mph - N/A   Scattered Clouds
4:35 PM 17.6 °F 6.4 °F 10.4 °F 73% 30.22 in 10.0 mi WSW 9.2 mph - N/A   Mostly Cloudy
4:55 PM 17.6 °F 7.3 °F 10.4 °F 73% 30.22 in 10.0 mi WSW 8.1 mph - N/A   Overcast
5:15 PM 15.8 °F 4.2 °F 10.4 °F 79% 30.22 in 10.0 mi SW 9.2 mph - N/A   Mostly Cloudy
5:35 PM 15.8 °F 6.1 °F 10.4 °F 79% 30.21 in 10.0 mi WSW 6.9 mph - N/A   Scattered Clouds
5:55 PM 17.6 °F 6.4 °F 10.4 °F 73% 30.22 in 10.0 mi WSW 9.2 mph - N/A   Mostly Cloudy
6:15 PM 17.6 °F 7.3 °F 10.4 °F 73% 30.21 in 10.0 mi SW 8.1 mph - N/A   Overcast
6:35 PM 17.6 °F 8.2 °F 10.4 °F 73% 30.20 in 10.0 mi SW 6.9 mph - N/A   Overcast
6:55 PM 17.6 °F 10.7 °F 10.4 °F 73% 30.20 in 10.0 mi SW 4.6 mph - N/A   Overcast
7:15 PM 17.6 °F 8.2 °F 10.4 °F 73% 30.20 in 10.0 mi SW 6.9 mph - N/A   Overcast
7:35 PM 17.6 °F 9.3 °F 12.2 °F 79% 30.20 in 2.0 mi SW 5.8 mph - N/A Snow Light Snow
7:55 PM 17.6 °F 9.3 °F 12.2 °F 79% 30.20 in 4.0 mi SW 5.8 mph - N/A Snow Light Snow
8:15 PM 17.6 °F 12.3 °F 14.0 °F 86% 30.19 in 3.0 mi WSW 3.5 mph - N/A Snow Light Snow
8:35 PM 17.6 °F 9.3 °F 14.0 °F 86% 30.20 in 2.0 mi SW 5.8 mph - N/A Snow Light Snow
8:55 PM 17.6 °F 8.2 °F 14.0 °F 86% 30.19 in 2.0 mi WSW 6.9 mph - N/A Snow Light Snow
9:15 PM 17.6 °F 9.3 °F 14.0 °F 86% 30.19 in 2.5 mi WSW 5.8 mph - N/A Snow Light Snow
9:35 PM 17.6 °F 9.3 °F 14.0 °F 86% 30.19 in 4.0 mi SW 5.8 mph - N/A Snow Light Snow
9:55 PM 17.6 °F 9.3 °F 14.0 °F 86% 30.19 in 3.0 mi SW 5.8 mph - N/A Snow Light Snow
10:15 PM 17.6 °F 7.3 °F 14.0 °F 86% 30.19 in 1.8 mi SW 8.1 mph - N/A Snow Light Snow
10:35 PM 17.6 °F 5.7 °F 15.8 °F 93% 30.19 in 2.5 mi SW 10.4 mph - N/A Snow Light Snow
10:55 PM 17.6 °F 5.0 °F 14.0 °F 86% 30.20 in 2.0 mi SW 11.5 mph - N/A Snow Light Snow
11:15 PM 17.6 °F 5.7 °F 14.0 °F 86% 30.19 in 4.0 mi WSW 10.4 mph - N/A Snow Light Snow
11:35 PM 17.6 °F 5.7 °F 14.0 °F 86% 30.18 in 4.0 mi WSW 10.4 mph - N/A Snow Light Snow
11:55 PM 17.6 °F 6.4 °F 14.0 °F 86% 30.17 in 5.0 mi WSW 9.2 mph - N/A Snow Light Snow